When you browse on this site, cookies collect data to enhance your experience and personalize the content and advertising you see.
Visit our Privacy Policy to learn more. By continuing to use the site, you agree to this use of cookies and data.
  • In Hungary
  • List of Countries
  • For 7 days
  • Water Temperature
  • Weather Map
  • News
  • Weather Widgets
  • user-avatar
    Login

    Hourly Weather Malykivshchyna

    Today, 21 November, Thursday

    Time Temperature Precipitation Wind Pressure Humidity
    00:00 -1°C° 0 mm 6 mps 766 mmHg 69%
    01:00 -2°C° 0 mm 6 mps 766 mmHg 68%
    02:00 -3°C° 0 mm 6 mps 767 mmHg 72%
    03:00 -4°C° 0 mm 6 mps 767 mmHg 73%
    04:00 -5°C° 0 mm 6 mps 767 mmHg 73%
    05:00 -7°C° 0 mm 7 mps 767 mmHg 74%
    06:00 -7°C° 0 mm 7 mps 768 mmHg 71%
    07:00 -8°C° 0 mm 7 mps 768 mmHg 68%
    08:00 -8°C° 0 mm 8 mps 768 mmHg 65%
    09:00 -8°C° 0 mm 8 mps 769 mmHg 59%
    10:00 -7°C° 0 mm 8 mps 769 mmHg 53%
    11:00 -7°C° 0 mm 8 mps 769 mmHg 48%
    12:00 -6°C° 0 mm 7 mps 769 mmHg 44%
    13:00 -6°C° 0 mm 7 mps 769 mmHg 41%
    14:00 -6°C° 0 mm 7 mps 768 mmHg 38%
    15:00 -7°C° 0 mm 7 mps 769 mmHg 39%
    16:00 -8°C° 0 mm 6 mps 769 mmHg 39%
    17:00 -9°C° 0 mm 6 mps 769 mmHg 39%
    18:00 -9°C° 0 mm 6 mps 769 mmHg 36%
    19:00 -9°C° 0 mm 6 mps 769 mmHg 32%
    20:00 -10°C° 0 mm 6 mps 769 mmHg 28%
    21:00 -10°C° 0 mm 6 mps 769 mmHg 29%
    22:00 -10°C° 0 mm 6 mps 769 mmHg 29%
    23:00 -10°C° 0 mm 6 mps 769 mmHg 30%

    Tomorrow, 22 November, Friday

    Time Temperature Precipitation Wind Pressure Humidity
    00:00 -11°C° 0 mm 6 mps 769 mmHg 31%
    01:00 -11°C° 0 mm 6 mps 769 mmHg 33%
    02:00 -11°C° 0 mm 6 mps 769 mmHg 34%
    03:00 -11°C° 0 mm 6 mps 769 mmHg 36%
    04:00 -11°C° 0 mm 6 mps 769 mmHg 39%
    05:00 -12°C° 0 mm 6 mps 769 mmHg 41%
    06:00 -11°C° 0 mm 6 mps 769 mmHg 43%
    07:00 -11°C° 0 mm 6 mps 769 mmHg 44%
    08:00 -11°C° 0 mm 6 mps 769 mmHg 46%
    09:00 -10°C° 0 mm 6 mps 769 mmHg 42%
    10:00 -9°C° 0 mm 7 mps 769 mmHg 38%
    11:00 -8°C° 0 mm 7 mps 768 mmHg 34%
    12:00 -7°C° 0 mm 7 mps 768 mmHg 33%
    13:00 -7°C° 0 mm 7 mps 768 mmHg 31%
    14:00 -6°C° 0 mm 7 mps 767 mmHg 30%
    15:00 -6°C° 0 mm 6 mps 767 mmHg 32%
    16:00 -8°C° 0 mm 6 mps 767 mmHg 35%
    17:00 -8°C° 0 mm 5 mps 767 mmHg 38%
    18:00 -8°C° 0 mm 5 mps 767 mmHg 38%
    19:00 -8°C° 0 mm 5 mps 767 mmHg 39%
    20:00 -8°C° 0 mm 5 mps 767 mmHg 39%
    21:00 -8°C° 0 mm 5 mps 767 mmHg 40%
    22:00 -10°C° 0 mm 5 mps 767 mmHg 41%
    23:00 -10°C° 0 mm 5 mps 767 mmHg 41%

    Day after tomorrow, 23 November, Saturday

    Time Temperature Precipitation Wind Pressure Humidity
    00:00 -10°C° 0 mm 5 mps 767 mmHg 42%
    01:00 -10°C° 0 mm 5 mps 767 mmHg 43%
    02:00 -11°C° 0 mm 5 mps 767 mmHg 44%
    03:00 -11°C° 0 mm 5 mps 766 mmHg 44%
    04:00 -11°C° 0 mm 5 mps 766 mmHg 44%
    05:00 -11°C° 0 mm 5 mps 766 mmHg 44%
    06:00 -11°C° 0 mm 5 mps 766 mmHg 44%
    07:00 -11°C° 0 mm 5 mps 766 mmHg 43%
    08:00 -11°C° 0 mm 6 mps 766 mmHg 43%
    09:00 -9°C° 0 mm 6 mps 766 mmHg 38%
    10:00 -8°C° 0 mm 6 mps 766 mmHg 34%
    11:00 -5°C° 0 mm 6 mps 766 mmHg 29%
    12:00 -5°C° 0 mm 6 mps 765 mmHg 28%
    13:00 -4°C° 0 mm 6 mps 765 mmHg 26%
    14:00 -3°C° 0 mm 6 mps 764 mmHg 25%
    15:00 -4°C° 0 mm 6 mps 764 mmHg 27%
    16:00 -5°C° 0 mm 5 mps 764 mmHg 30%
    17:00 -6°C° 0 mm 5 mps 764 mmHg 32%
    18:00 -6°C° 0 mm 5 mps 764 mmHg 32%
    19:00 -7°C° 0 mm 5 mps 764 mmHg 32%
    20:00 -7°C° 0 mm 5 mps 764 mmHg 32%
    21:00 -7°C° 0 mm 4 mps 764 mmHg 33%
    22:00 -7°C° 0 mm 4 mps 764 mmHg 34%
    23:00 -8°C° 0 mm 4 mps 764 mmHg 34%

    24 November, Sunday

    Time Temperature Precipitation Wind Pressure Humidity
    00:00 -8°C° 0 mm 4 mps 764 mmHg 35%
    01:00 -8°C° 0 mm 4 mps 764 mmHg 36%
    02:00 -8°C° 0 mm 4 mps 764 mmHg 37%
    03:00 -8°C° 0 mm 4 mps 764 mmHg 39%
    04:00 -8°C° 0 mm 4 mps 763 mmHg 40%
    05:00 -9°C° 0 mm 4 mps 763 mmHg 41%
    06:00 -9°C° 0 mm 4 mps 763 mmHg 41%
    07:00 -8°C° 0 mm 5 mps 763 mmHg 41%
    08:00 -8°C° 0 mm 5 mps 763 mmHg 41%
    09:00 -7°C° 0 mm 5 mps 763 mmHg 38%
    10:00 -6°C° 0 mm 5 mps 763 mmHg 35%
    11:00 -4°C° 0 mm 5 mps 763 mmHg 32%
    12:00 -4°C° 0 mm 5 mps 763 mmHg 32%
    13:00 -2°C° 0 mm 5 mps 762 mmHg 32%
    14:00 -2°C° 0 mm 5 mps 762 mmHg 32%
    15:00 -4°C° 0 mm 5 mps 762 mmHg 35%
    16:00 -5°C° 0 mm 5 mps 762 mmHg 39%
    17:00 -5°C° 0 mm 4 mps 762 mmHg 42%
    18:00 -5°C° 0 mm 4 mps 762 mmHg 43%
    19:00 -6°C° 0 mm 5 mps 762 mmHg 44%
    20:00 -6°C° 0 mm 5 mps 762 mmHg 45%
    21:00 -6°C° 0 mm 5 mps 761 mmHg 47%
    22:00 -6°C° 0 mm 5 mps 761 mmHg 49%
    23:00 -7°C° 0 mm 4 mps 761 mmHg 51%

    25 November, Monday

    Time Temperature Precipitation Wind Pressure Humidity
    00:00 -7°C° 0 mm 4 mps 761 mmHg 54%
    01:00 -7°C° 0 mm 4 mps 761 mmHg 56%
    02:00 -7°C° 0 mm 4 mps 761 mmHg 58%
    03:00 -8°C° 0 mm 4 mps 761 mmHg 61%
    04:00 -8°C° 0 mm 4 mps 761 mmHg 63%
    05:00 -8°C° 0 mm 4 mps 760 mmHg 66%
    06:00 -8°C° 0 mm 4 mps 760 mmHg 67%
    07:00 -8°C° 0 mm 4 mps 760 mmHg 68%
    08:00 -8°C° 0 mm 4 mps 760 mmHg 69%
    09:00 -5°C° 0 mm 4 mps 760 mmHg 66%
    10:00 -5°C° 0 mm 5 mps 760 mmHg 63%
    11:00 -2°C° 0 mm 5 mps 760 mmHg 60%
    12:00 -2°C° 0 mm 5 mps 760 mmHg 60%
    13:00 -1°C° 0 mm 5 mps 759 mmHg 60%
    14:00 -1°C° 0 mm 4 mps 759 mmHg 60%
    15:00 -2°C° 0 mm 4 mps 759 mmHg 66%
    16:00 -3°C° 0 mm 4 mps 759 mmHg 72%
    17:00 -4°C° 0 mm 3 mps 759 mmHg 78%
    18:00 -4°C° 0 mm 4 mps 759 mmHg 79%
    19:00 -4°C° 0 mm 4 mps 758 mmHg 79%
    20:00 -4°C° 0 mm 4 mps 758 mmHg 79%
    21:00 -5°C° 0 mm 4 mps 758 mmHg 79%
    22:00 -5°C° 0 mm 4 mps 758 mmHg 78%
    23:00 -5°C° 0 mm 4 mps 758 mmHg 78%

    26 November, Tuesday

    Time Temperature Precipitation Wind Pressure Humidity
    00:00 -5°C° 0 mm 3 mps 758 mmHg 76%
    01:00 -6°C° 0 mm 3 mps 758 mmHg 74%
    02:00 -6°C° 0 mm 3 mps 757 mmHg 72%
    03:00 -6°C° 0 mm 3 mps 757 mmHg 70%
    04:00 -6°C° 0 mm 3 mps 757 mmHg 68%
    05:00 -6°C° 0 mm 3 mps 757 mmHg 65%
    06:00 -6°C° 0 mm 3 mps 757 mmHg 63%
    07:00 -6°C° 0 mm 3 mps 757 mmHg 61%
    08:00 -7°C° 0 mm 4 mps 757 mmHg 58%
    09:00 -5°C° 0 mm 3 mps 757 mmHg 57%
    10:00 -4°C° 0 mm 3 mps 756 mmHg 55%
    11:00 -4°C° 0 mm 3 mps 756 mmHg 54%
    12:00 -2°C° 0 mm 3 mps 756 mmHg 56%
    13:00 -2°C° 0 mm 3 mps 756 mmHg 57%
    14:00 -2°C° 0 mm 3 mps 755 mmHg 59%
    15:00 -2°C° 0.1 mm 3 mps 755 mmHg 67%
    16:00 -2°C° 0.1 mm 2 mps 755 mmHg 74%
    17:00 -3°C° 0.1 mm 2 mps 755 mmHg 82%
    18:00 -3°C° 0.1 mm 2 mps 755 mmHg 86%
    19:00 -3°C° 0.1 mm 2 mps 755 mmHg 90%
    20:00 -3°C° 0.1 mm 2 mps 755 mmHg 94%
    21:00 -3°C° 0.1 mm 2 mps 755 mmHg 94%
    22:00 -3°C° 0.1 mm 2 mps 755 mmHg 95%
    23:00 -3°C° 0.1 mm 2 mps 755 mmHg 96%
    Show more